Weather History for Raton, NM

Change the Weather History Date:

Friday, April 26, 2013

  Actual Average (KTAD) Record (KTAD)
Temperature  
Mean Temperature 52 °F 53 °F  
Max Temperature 68 °F 68 °F 87 °F (1981)
Min Temperature 37 °F 37 °F 26 °F (1997)
Degree Days  
Heating Degree Days 14 12  
Month to date heating degree days 415  
Since 1 July heating degree days 5244  
Cooling Degree Days 0 0  
Month to date cooling degree days 0  
Year to date cooling degree days 0  
Growing Degree Days 2 (Base 50)    
Moisture  
Dew Point 29 °F    
Average Humidity 47    
Maximum Humidity 86    
Minimum Humidity 15    
Precipitation  
Precipitation 0.00 in 0.05 in 3.11 in (1998)
Month to date precipitation 0.97  
Year to date precipitation 2.75  
Sea Level Pressure  
Sea Level Pressure 30.01 in    
Wind  
Wind Speed 10 mph (NNW)    
Max Wind Speed 29 mph    
Max Gust Speed 37 mph    
Visibility 10 miles    
Events      
T = Trace of Precipitation, MM = Missing Value Source: NWS Daily Summary

Daily Weather History Graph

Daily Weather History Graph

Search for Another Location

Airport:

Trip Planner

Search our weather history database for the weather conditions in past years. The results will help you decide how hot, cold, wet, or windy it might be!

Date:

Astronomy

Apr. 26, 2013 Rise Set
Actual Time 6:09 AM MDT 7:42 PM MDT
Civil Twilight 5:42 AM MDT 8:09 PM MDT
Nautical Twilight 5:09 AM MDT 8:42 PM MDT
Astronomical Twilight 4:34 AM MDT 9:17 PM MDT
Moon 9:05 PM MDT 6:40 AM MDT
Length of Visible Light 14h 27m
Length of Day
13h 32m
Full, 99% of the Moon is Illuminated
Apr 26
Full
May 2
Last Quarter
May 9
New
May 17
First Quarter
May 24
Full

Hourly Weather History & Observations

Time (MDT) Temp. Windchill Dew Point Humidity Pressure Visibility Wind Dir Wind Speed Gust Speed Precip Events Conditions
12:53 AM 44.1 °F 40.1 °F 36.0 °F 73% 29.93 in 10.0 mi NNE 6.9 mph - 0.00 in   Scattered Clouds
1:53 AM 44.1 °F - 36.0 °F 73% 29.90 in 10.0 mi Calm Calm - N/A   Mostly Cloudy
2:53 AM 44.1 °F 41.5 °F 37.0 °F 76% 29.89 in 10.0 mi North 4.6 mph - 0.00 in   Overcast
3:53 AM 42.1 °F - 36.0 °F 79% 29.87 in 10.0 mi Calm Calm - N/A   Mostly Cloudy
4:53 AM 39.9 °F 35.1 °F 36.0 °F 86% 29.89 in 10.0 mi WSW 6.9 mph - N/A   Mostly Cloudy
5:53 AM 37.9 °F 33.5 °F 34.0 °F 86% 29.94 in 10.0 mi NE 5.8 mph - N/A   Mostly Cloudy
6:53 AM 41.0 °F 35.2 °F 34.0 °F 76% 29.95 in 10.0 mi North 9.2 mph - N/A   Partly Cloudy
7:53 AM 45.0 °F 40.6 °F 37.0 °F 74% 29.95 in 10.0 mi East 8.1 mph - N/A   Mostly Cloudy
8:53 AM 57.0 °F - 30.0 °F 36% 29.94 in 10.0 mi North 19.6 mph 29.9 mph N/A   Mostly Cloudy
9:53 AM 57.0 °F - 32.0 °F 39% 29.99 in 10.0 mi North 27.6 mph 36.8 mph N/A   Overcast
10:53 AM 55.9 °F - 33.1 °F 42% 30.01 in 10.0 mi North 28.8 mph 33.4 mph N/A   Overcast
11:53 AM 59.0 °F - 28.0 °F 31% 30.04 in 10.0 mi NNE 26.5 mph 33.4 mph N/A   Clear
12:53 PM 63.0 °F - 23.0 °F 22% 30.00 in 10.0 mi North 20.7 mph 33.4 mph N/A   Clear
1:53 PM 64.9 °F - 21.9 °F 19% 29.99 in 10.0 mi NNE 21.9 mph 27.6 mph N/A   Clear
2:53 PM 64.9 °F - 18.0 °F 16% 29.99 in 10.0 mi NW 19.6 mph 32.2 mph N/A   Clear
3:53 PM 66.9 °F - 17.1 °F 15% 30.00 in 10.0 mi NNW 18.4 mph 28.8 mph N/A   Clear
4:53 PM 63.0 °F - 16.0 °F 16% 30.04 in 10.0 mi NNW 13.8 mph 20.7 mph N/A   Clear
5:53 PM 61.0 °F - 16.0 °F 17% 30.08 in 10.0 mi NNE 9.2 mph - N/A   Mostly Cloudy
6:53 PM 57.9 °F - 24.1 °F 27% 30.10 in 10.0 mi WNW 16.1 mph - N/A   Overcast
7:53 PM 54.0 °F - 27.0 °F 35% 30.12 in 10.0 mi West 8.1 mph - N/A   Overcast
8:53 PM 52.0 °F - 28.9 °F 41% 30.12 in 10.0 mi West 9.2 mph - N/A   Overcast
9:53 PM 48.9 °F - 28.9 °F 46% 30.14 in 10.0 mi West 4.6 mph - N/A   Clear
10:53 PM 44.1 °F 40.1 °F 28.9 °F 55% 30.15 in 10.0 mi WSW 6.9 mph - N/A   Clear
11:53 PM 42.1 °F 36.6 °F 26.1 °F 53% 30.16 in 10.0 mi NE 9.2 mph - N/A   Clear